UAL435 KSFO-KEWR

Flight info

Callsign UAL435
Flight time N/A
Altitude 37000
Route TRUKN2 MOGEE Q122 LCU KU69O BXTER KU72S KD72U EVENN/N0488F390 KD72A OVR DSM EVOTE NELLS KEEHO J584 SLT FQM
Aircraft B77W/H-SDE1E2E3FGHIJ2J3J4J5M1RWXYZ/LB1D1

Departure

Time 2026-04-30 20:27
Airport San Francisco International Airport (KSFO)

Arrival

Time N/A
Airport Newark Liberty International Airport (KEWR)
Time Latitude Longitude Altitude Speed Heading
2026-04-30 19:48 37.62132 -122.38921 38 ft 0 kts 205°
2026-04-30 20:14 37.62133 -122.38921 38 ft 0 kts 205°
2026-04-30 20:14 37.62145 -122.38914 38 ft 2 kts 205°
2026-04-30 20:15 37.62157 -122.38907 38 ft 2 kts 205°
2026-04-30 20:15 37.62170 -122.38899 38 ft 2 kts 205°
2026-04-30 20:15 37.62180 -122.38893 38 ft 0 kts 205°
2026-04-30 20:15 37.62191 -122.38887 38 ft 2 kts 198°
2026-04-30 20:16 37.62206 -122.38883 38 ft 2 kts 182°
2026-04-30 20:16 37.62220 -122.38884 38 ft 2 kts 171°
2026-04-30 20:16 37.62235 -122.38888 37 ft 2 kts 158°
2026-04-30 20:16 37.62248 -122.38896 37 ft 2 kts 146°
2026-04-30 20:17 37.62260 -122.38908 37 ft 2 kts 133°
2026-04-30 20:17 37.62269 -122.38924 36 ft 2 kts 120°
2026-04-30 20:17 37.62273 -122.38931 36 ft 1 kts 117°
2026-04-30 20:19 37.62272 -122.38930 36 ft 1 kts 117°
2026-04-30 20:19 37.62259 -122.38899 37 ft 7 kts 118°
2026-04-30 20:20 37.62224 -122.38818 37 ft 12 kts 118°
2026-04-30 20:20 37.62182 -122.38719 38 ft 13 kts 117°
2026-04-30 20:20 37.62137 -122.38609 38 ft 15 kts 117°
2026-04-30 20:20 37.62081 -122.38475 38 ft 17 kts 118°
2026-04-30 20:21 37.62025 -122.38342 38 ft 17 kts 118°
2026-04-30 20:21 37.61969 -122.38208 38 ft 17 kts 117°
2026-04-30 20:21 37.61912 -122.38073 38 ft 17 kts 117°
2026-04-30 20:21 37.61857 -122.37937 37 ft 17 kts 117°
2026-04-30 20:22 37.61804 -122.37788 34 ft 19 kts 111°
2026-04-30 20:22 37.61755 -122.37623 30 ft 21 kts 111°
2026-04-30 20:22 37.61701 -122.37467 25 ft 18 kts 115°
2026-04-30 20:22 37.61638 -122.37317 21 ft 20 kts 118°
2026-04-30 20:23 37.61572 -122.37160 19 ft 20 kts 117°
2026-04-30 20:23 37.61504 -122.36996 18 ft 20 kts 118°
2026-04-30 20:23 37.61417 -122.36854 18 ft 20 kts 134°
2026-04-30 20:23 37.61337 -122.36712 18 ft 19 kts 118°
2026-04-30 20:24 37.61275 -122.36565 18 ft 19 kts 118°
2026-04-30 20:24 37.61211 -122.36411 16 ft 20 kts 118°
2026-04-30 20:24 37.61144 -122.36250 15 ft 20 kts 117°
2026-04-30 20:24 37.61082 -122.36099 15 ft 17 kts 118°
2026-04-30 20:25 37.61086 -122.35918 15 ft 11 kts 26°
2026-04-30 20:25 37.61157 -122.35880 15 ft 9 kts 24°
2026-04-30 20:26 37.61197 -122.35893 15 ft 0 kts 299°
2026-04-30 20:26 37.61326 -122.36200 16 ft 77 kts 298°
2026-04-30 20:26 37.61699 -122.37096 21 ft 149 kts 298°
2026-04-30 20:27 37.62826 -122.39632 1189 ft 182 kts 314°
2026-04-30 20:27 37.65162 -122.40904 2121 ft 217 kts
2026-04-30 20:28 37.67670 -122.39064 3042 ft 256 kts 61°
2026-04-30 20:28 37.68751 -122.34888 4849 ft 264 kts 73°
2026-04-30 20:29 37.69732 -122.30518 6678 ft 269 kts 73°
2026-04-30 20:30 37.71223 -122.23846 9165 ft 280 kts 72°
2026-04-30 20:30 37.75200 -122.18310 11032 ft 311 kts 34°
2026-04-30 20:31 37.80929 -122.13175 12701 ft 360 kts 34°
2026-04-30 20:32 37.87421 -122.07227 14859 ft 397 kts 38°
2026-04-30 20:32 37.91248 -122.02025 16900 ft 407 kts 46°
2026-04-30 20:33 37.93104 -121.99285 17756 ft 414 kts 46°
2026-04-30 20:33 37.96931 -121.93630 19396 ft 427 kts 46°
2026-04-30 20:33 37.98904 -121.90712 20262 ft 433 kts 46°
2026-04-30 20:34 38.02835 -121.84893 21914 ft 445 kts 46°
2026-04-30 20:34 38.06816 -121.78990 23424 ft 457 kts 45°
2026-04-30 20:35 38.08898 -121.75899 24214 ft 462 kts 45°
2026-04-30 20:35 38.10981 -121.72804 24947 ft 468 kts 45°
2026-04-30 20:35 38.15270 -121.66420 26406 ft 479 kts 45°
2026-04-30 20:36 38.17409 -121.63232 27077 ft 485 kts 45°
2026-04-30 20:36 38.19622 -121.59932 27745 ft 490 kts 45°
2026-04-30 20:36 38.24121 -121.53208 29067 ft 501 kts 45°
2026-04-30 20:37 38.26443 -121.49732 29826 ft 504 kts 45°
2026-04-30 20:37 38.28729 -121.46305 30751 ft 502 kts 45°
2026-04-30 20:37 38.31008 -121.42883 31682 ft 499 kts 45°
2026-04-30 20:37 38.33292 -121.39451 32525 ft 496 kts 45°
2026-04-30 20:38 38.35461 -121.36097 33236 ft 496 kts 46°
2026-04-30 20:38 38.37604 -121.32634 33861 ft 497 kts 47°
2026-04-30 20:38 38.39733 -121.29179 34429 ft 498 kts 47°
2026-04-30 20:39 38.44020 -121.22226 35701 ft 495 kts 47°
2026-04-30 20:39 38.46144 -121.18780 36329 ft 494 kts 47°
2026-04-30 20:39 38.48301 -121.15281 36839 ft 493 kts 47°
2026-04-30 20:40 38.52557 -121.08371 36961 ft 497 kts 47°
2026-04-30 20:40 38.56824 -121.01432 36965 ft 496 kts 47°
2026-04-30 20:41 38.63205 -120.91030 36999 ft 497 kts 47°
2026-04-30 20:41 38.67451 -120.84091 37022 ft 496 kts 46°
2026-04-30 20:42 38.71660 -120.77200 37047 ft 497 kts 47°
2026-04-30 20:43 38.77925 -120.66914 37062 ft 497 kts 47°
2026-04-30 20:43 38.82183 -120.59905 37070 ft 497 kts 47°
2026-04-30 20:44 38.88572 -120.49358 37128 ft 498 kts 47°
2026-04-30 20:45 38.97053 -120.35304 37169 ft 495 kts 47°
2026-04-30 20:45 39.01315 -120.28220 37167 ft 498 kts 47°
2026-04-30 20:46 39.09835 -120.14008 37190 ft 499 kts 47°
2026-04-30 20:47 39.15848 -120.03940 37203 ft 498 kts 47°
2026-04-30 20:48 39.21831 -119.93890 37204 ft 497 kts 47°
2026-04-30 20:48 39.26076 -119.86741 37201 ft 498 kts 47°
2026-04-30 20:49 39.30311 -119.79594 37185 ft 499 kts 47°
2026-04-30 20:50 39.36665 -119.68838 37181 ft 498 kts 47°
2026-04-30 20:50 39.40877 -119.61687 37170 ft 498 kts 47°
2026-04-30 20:51 39.45088 -119.54524 37168 ft 498 kts 47°
2026-04-30 20:51 39.51375 -119.43799 37171 ft 499 kts 47°
2026-04-30 20:52 39.55582 -119.36601 37173 ft 500 kts 47°
2026-04-30 20:53 39.61887 -119.25784 37150 ft 502 kts 48°
2026-04-30 20:53 39.66107 -119.18522 37153 ft 501 kts 48°
2026-04-30 20:54 39.72432 -119.07607 37132 ft 500 kts 48°
2026-04-30 20:55 39.78725 -118.96709 37146 ft 501 kts 49°
2026-04-30 20:55 39.82933 -118.89403 37141 ft 501 kts 49°
2026-04-30 20:56 39.89001 -118.78236 37135 ft 506 kts 56°
2026-04-30 20:57 39.94004 -118.66097 37160 ft 507 kts 57°
2026-04-30 20:57 39.97314 -118.57978 37142 ft 506 kts 57°
2026-04-30 20:58 40.02301 -118.45693 37138 ft 507 kts 57°
2026-04-30 20:58 40.05608 -118.37516 37137 ft 506 kts 57°
2026-04-30 20:59 40.10534 -118.25295 37138 ft 506 kts 58°
2026-04-30 21:00 40.17086 -118.08960 37153 ft 504 kts 58°
2026-04-30 21:01 40.21587 -117.96443 37152 ft 509 kts 64°
2026-04-30 21:02 40.25489 -117.83429 37165 ft 509 kts 64°
2026-04-30 21:02 40.28073 -117.74777 37176 ft 510 kts 64°
2026-04-30 21:03 40.30662 -117.66087 37174 ft 510 kts 64°
2026-04-30 21:03 40.33247 -117.57385 37173 ft 510 kts 64°
2026-04-30 21:04 40.35813 -117.48716 37177 ft 511 kts 64°
2026-04-30 21:04 40.39663 -117.35661 37177 ft 510 kts 64°
2026-04-30 21:05 40.42213 -117.26978 37164 ft 509 kts 65°
2026-04-30 21:05 40.44756 -117.18290 37164 ft 510 kts 64°
2026-04-30 21:06 40.47298 -117.09578 37161 ft 510 kts 65°
2026-04-30 21:06 40.49827 -117.00880 37159 ft 509 kts 65°
2026-04-30 21:07 40.52362 -116.92134 37154 ft 510 kts 64°
2026-04-30 21:07 40.54875 -116.83433 37160 ft 508 kts 64°
2026-04-30 21:08 40.57378 -116.74738 37164 ft 508 kts 64°
2026-04-30 21:08 40.59880 -116.66019 37158 ft 507 kts 64°
2026-04-30 21:09 40.62365 -116.57327 37151 ft 506 kts 64°
2026-04-30 21:09 40.64852 -116.48604 37146 ft 508 kts 64°
2026-04-30 21:10 40.67332 -116.39871 37162 ft 507 kts 64°
2026-04-30 21:10 40.68460 -116.35891 37170 ft 507 kts 64°